DW2959 Murcia ES current weather conditions

sailwx.info

Last reported at 2015-Sep-01 02:42 UTC.
Time now 2015-Sep-01 03:56 UTC

Location: N 38°00' W 001°02'.
View on Google Maps.

See reports from other nearby stations

  
Tides and Currents Weather Stations Pressure Air Temp Water Temp Dewpoint Dewpoint Depression Visibility Wind Speed Wind Dir Waves Ship Positions
date/time (UTC)wind fromknots sea level pressurealtimeterstation pressurevisibilityair tempwater tempwave heightnotes
2015-Sep-01 02:42
2015-Sep-01 02:28
2015-Sep-01 02:13
2015-Sep-01 01:58
2015-Sep-01 01:43
2015-Sep-01 01:27
2015-Sep-01 01:11
2015-Sep-01 00:58
2015-Sep-01 00:42
2015-Sep-01 00:27
2015-Sep-01 00:12 029 24.4
2015-Aug-31 23:56 029 0 24.4
2015-Aug-31 23:40 029 0 24.4
2015-Aug-31 23:26 029 24.4
2015-Aug-31 23:11 029 24.4
2015-Aug-31 22:57 029 24.4
2015-Aug-31 22:41 029 24.4
2015-Aug-31 22:26 029 24.4
2015-Aug-31 22:11 029 24.4
2015-Aug-31 21:55 029 25.0
2015-Aug-31 21:41 029 25.0
2015-Aug-31 21:25 029 25.0
2015-Aug-31 21:11 029 0 25.0
2015-Aug-31 20:56 027 0 25.6
2015-Aug-31 20:40 163 25.6
2015-Aug-31 20:25 163 25.0
2015-Aug-31 20:11 163 0 25.0
2015-Aug-31 19:55 163 0 25.0
2015-Aug-31 19:40 161 1 25.0
2015-Aug-31 19:25 036 3 25.0
2015-Aug-31 19:09 273 5 25.6
2015-Aug-31 18:55 083 2 25.6
2015-Aug-31 18:40 073 1 25.6
2015-Aug-31 18:24 211 0 25.6
2015-Aug-31 18:10 211 3 25.6
2015-Aug-31 17:55 201 4 26.1
2015-Aug-31 17:39 175 6 26.1
2015-Aug-31 17:24 098 4 26.7
2015-Aug-31 17:10 074 3 27.2
2015-Aug-31 16:54 316 2 27.8
2015-Aug-31 16:39 128 1 28.3
2015-Aug-31 16:25 090 2 28.9
2015-Aug-31 16:08 114 2 29.4
2015-Aug-31 15:54 115 4 29.4
2015-Aug-31 15:38 123 4 30.0
2015-Aug-31 15:24 162 6 30.6
2015-Aug-31 15:09 146 3 31.1
2015-Aug-31 14:54 124 4 31.1
2015-Aug-31 14:38 135 4 31.7
2015-Aug-31 14:24 122 3 32.2
2015-Aug-31 14:09 140 3 31.7
2015-Aug-31 13:53 111 5 32.2
2015-Aug-31 13:39 101 3 32.2
2015-Aug-31 13:23 101 4 32.2
2015-Aug-31 13:09 087 2 32.2
2015-Aug-31 12:52 078 4 32.2
2015-Aug-31 12:38 110 4 32.2
2015-Aug-31 12:23 096 2 32.8
2015-Aug-31 12:08 097 2 32.8
2015-Aug-31 11:52 053 1 32.2
2015-Aug-31 11:37 093 2 31.7
2015-Aug-31 11:23 089 2 31.1
2015-Aug-31 11:07 052 3 30.6
2015-Aug-31 10:52 024 1 30.0
2015-Aug-31 10:38 343 1 30.0
2015-Aug-31 10:22 068 1 30.0
2015-Aug-31 10:07 011 30.0
2015-Aug-31 09:52 011 0 29.4
2015-Aug-31 09:38 343 0 28.9
2015-Aug-31 09:21 005 28.3
2015-Aug-31 09:07 005 0 28.3
2015-Aug-31 08:52 077 27.8
2015-Aug-31 08:37 077 0 27.8
2015-Aug-31 08:21 081 27.8
2015-Aug-31 08:07 081 0 27.2
2015-Aug-31 07:51 081 27.2
2015-Aug-31 07:36 081 26.7
2015-Aug-31 07:22 081 26.1
2015-Aug-31 07:05 081 25.6
2015-Aug-31 06:51 081 25.6
2015-Aug-31 06:36 081 25.0
2015-Aug-31 06:20
2015-Aug-31 06:05
2015-Aug-31 05:51
2015-Aug-31 05:35
2015-Aug-31 05:20
2015-Aug-31 05:05
2015-Aug-31 04:50
2015-Aug-31 04:35
2015-Aug-31 04:20
2015-Aug-31 04:04
2015-Aug-31 03:49
2015-Aug-31 03:34
2015-Aug-31 03:19
2015-Aug-31 03:05
2015-Aug-31 02:50
2015-Aug-31 02:34
2015-Aug-31 02:18
2015-Aug-31 02:03 081 25.0
2015-Aug-31 01:48 081 25.6
2015-Aug-31 01:34 081 25.6
2015-Aug-31 01:18 081 0 25.6
2015-Aug-31 01:03 080 0 25.6
2015-Aug-31 00:49 081 0 25.6
2015-Aug-31 00:33 081 0 25.6
2015-Aug-31 00:18 081 0 26.1
2015-Aug-31 00:02 080 26.1
2015-Aug-30 23:48 080 26.1
2015-Aug-30 23:33 080 0 26.1
2015-Aug-30 23:17 080 1 26.7
2015-Aug-30 23:02 083 26.7
2015-Aug-30 22:48 082 2 26.7
2015-Aug-30 22:32 122 26.7
2015-Aug-30 22:18 122 26.7
2015-Aug-30 22:02 122 26.7
2015-Aug-30 21:47 122 26.7
2015-Aug-30 21:32 122 0 26.7
2015-Aug-30 21:17 124 1 26.7
2015-Aug-30 21:02 073 3 26.7
2015-Aug-30 20:47 109 4 26.7
2015-Aug-30 20:32 104 3 27.2
2015-Aug-30 20:17 119 2 27.2
2015-Aug-30 20:02 085 5 27.2
2015-Aug-30 19:47 102 4 27.2
2015-Aug-30 19:32 090 3 27.2
2015-Aug-30 19:17 095 3 27.8
2015-Aug-30 19:02 081 3 27.8
2015-Aug-30 18:47 078 27.8
2015-Aug-30 18:32 077 2 28.3
2015-Aug-30 18:17 080 0 28.3
2015-Aug-30 18:01 084 0 28.3
2015-Aug-30 17:46 111 2 28.9
2015-Aug-30 17:31 076 2 28.9
2015-Aug-30 17:16 087 3 28.9
2015-Aug-30 17:01 098 4 29.4
2015-Aug-30 16:46 081 3 29.4
2015-Aug-30 16:31 092 4 30.6
2015-Aug-30 16:16 120 4 30.6
2015-Aug-30 16:01 064 5 30.6
2015-Aug-30 15:46 082 5 30.6
2015-Aug-30 15:31
2015-Aug-30 15:18
2015-Aug-30 15:01 068 4 31.1
2015-Aug-30 14:46 076 3 31.7
2015-Aug-30 14:31 097 2 31.1
2015-Aug-30 14:16 117 4 31.1
2015-Aug-30 14:01 086 3 30.6
2015-Aug-30 13:46 098 4 31.1
2015-Aug-30 13:30 086 4 31.1
2015-Aug-30 13:15 082 5 31.1
2015-Aug-30 13:00 135 4 30.6
2015-Aug-30 12:45 129 3 30.6
2015-Aug-30 12:30 123 5 30.6
2015-Aug-30 12:00 115 5 30.6
2015-Aug-30 11:45 092 3 30.6
2015-Aug-30 11:30 030 2 30.0
2015-Aug-30 11:15 080 3 29.4
2015-Aug-30 11:00 084 1 29.4
2015-Aug-30 10:30 052 1 28.9
2015-Aug-30 10:15 065 1 29.4
2015-Aug-30 10:00 055 2 28.9
2015-Aug-30 09:45 055 0 28.3
2015-Aug-30 09:30 071 0 27.8
2015-Aug-30 09:15 070 0 27.8
2015-Aug-30 09:00 211 0 27.2
2015-Aug-30 08:45 224 2 26.7
2015-Aug-30 08:30 221 3 26.1
2015-Aug-30 08:15 262 2 25.6
2015-Aug-30 08:00 213 2 25.6
2015-Aug-30 07:45 257 1 25.0
2015-Aug-30 07:29 267 2 24.4
2015-Aug-30 07:14 223 2 24.4
2015-Aug-30 06:59 244 0 23.9
2015-Aug-30 06:44 202 0 23.3
2015-Aug-30 06:29 162 23.3
2015-Aug-30 06:14
2015-Aug-30 05:59
2015-Aug-30 05:44
2015-Aug-30 05:29
2015-Aug-30 05:14
2015-Aug-30 04:59
2015-Aug-30 04:44
2015-Aug-30 04:28
2015-Aug-30 04:13
2015-Aug-30 03:58
2015-Aug-30 03:43
2015-Aug-30 03:28
2015-Aug-30 03:13